Location: Central Falls
(41.8900°N, 71.3929°W)
Time: 05:25:43
(UTC+00:00)

Vanguard 3 - Pass Details

Date: 07 December 2023
Orbit: 508 x 3239 km, 33.4° (Epoch: 01 March)

Event Time Altitude Azimuth Distance (km) Brightness Sun altitude
Rises 02:08:26 0° 239° (WSW) 6,587 12.1 -53.6°
Reaches altitude 10° 02:13:37 10° 234° (SW) 5,199 11.4 -54.5°
Enters shadow 02:18:50 23° 224° (SW) 3,783 10.5 -55.4°
